Location: Rounton
(54.4000°N, 1.3500°W)
Time: 04:30:31
(UTC+00:00)

S-56A Canister/Altair - Pass Details

Date: 08 December 2021
Orbit: 633 x 2499 km, 38.9° (Epoch: 17 January)

Event Time Altitude Azimuth Distance (km) Brightness Sun altitude
Rises 03:08:17 0° 261° (W) 4,449 - -42.5°
Reaches altitude 10° 03:13:13 10° 240° (WSW) 3,048 - -41.8°
Maximum altitude 03:16:44 14° 210° (SSW) 2,454 - -41.3°
Drops below altitude 10° 03:19:44 10° 179° (S) 2,517 - -40.9°
Sets 03:23:08 0° 154° (SSE) 3,213 - -40.4°
